Theta_e
347 347 347 345 345 346 341 340 334 330 330 325 322 322 323 323 327 329 328 330 334 337 338 339 337 336 336 336 336 335 336 335 334 333 336 341 342 339 337 336 338 340 340 339 339 339 338 336 335 334 335 334 333 333 333 333 332 332 333 334 333 333 333 334 333 332 331 331 330 330 330 330 332 333 335 335 334 334 334 334 335 336 337 337 337
346 347 346 344 346 345 341 339 332 330 329 324 321 322 323 325 330 328 327 331 334 336 338 339 339 339 339 339 339 340 340 338 338 337 338 341 341 338 336 336 336 338 340 340 340 339 338 336 334 334 334 334 333 333 333 333 332 332 334 333 333 334 333 333 333 332 331 331 330 330 330 330 331 333 334 335 335 334 334 334 334 336 337 337 337
344 346 345 344 346 343 341 338 331 331 328 323 321 322 324 328 330 326 327 331 334 337 337 338 338 339 339 339 339 340 340 340 341 340 341 341 340 339 338 337 335 336 339 340 339 339 338 337 335 334 334 335 334 334 333 332 332 333 334 333 333 334 333 332 331 330 329 329 330 329 330 330 330 332 333 333 334 334 334 334 334 335 336 337 336
344 345 345 346 344 342 341 336 330 331 327 322 321 323 327 330 329 325 326 329 333 335 335 336 336 335 335 338 339 340 340 341 341 342 343 342 342 340 339 339 336 336 339 339 338 337 336 336 335 335 335 336 336 335 336 334 334 335 336 334 333 334 335 334 332 331 328 326 328 328 329 330 330 331 330 331 333 333 333 334 334 334 334 335 336
345 345 345 346 343 343 341 335 331 331 326 321 322 325 330 331 329 325 325 326 330 332 333 333 335 335 335 339 339 340 341 341 340 342 342 343 342 341 340 340 337 337 338 338 337 337 336 336 336 337 338 338 336 336 336 335 335 336 336 336 335 335 336 335 333 331 328 324 326 327 329 329 329 329 329 329 332 333 333 334 334 334 333 333 333
346 345 346 344 342 343 340 335 331 331 325 322 325 327 331 333 329 326 325 325 328 331 332 333 336 337 337 339 340 340 342 341 340 341 341 341 341 341 341 339 337 336 337 337 337 336 335 335 337 338 338 337 336 336 335 334 335 336 336 337 336 336 336 337 333 330 329 325 325 327 328 329 329 329 329 328 330 332 333 333 334 333 333 333 331
345 345 345 342 342 343 340 334 331 331 324 324 327 329 333 333 331 328 326 327 328 330 331 332 335 337 338 340 340 340 341 341 341 342 342 339 338 340 340 340 339 337 338 337 335 333 333 335 337 338 337 336 335 335 335 335 335 335 335 335 335 335 335 336 335 330 329 327 325 328 328 328 330 330 330 330 329 330 332 333 333 333 333 333 331
344 345 343 340 342 342 339 334 331 330 325 328 329 330 334 334 334 331 328 329 329 330 330 332 334 337 339 340 340 339 340 341 341 341 342 340 338 339 340 339 339 339 338 337 336 333 334 336 337 337 336 335 334 334 334 334 334 333 333 333 333 334 334 335 335 331 329 328 325 327 328 329 330 330 330 330 328 329 331 331 331 332 332 332 331
345 344 342 340 342 342 339 333 331 330 327 329 330 332 335 335 336 334 332 329 329 330 330 332 335 338 339 340 339 339 341 341 340 339 340 341 340 340 339 339 338 338 337 336 335 333 334 336 337 336 335 334 333 333 332 332 332 332 332 333 333 334 334 335 335 331 329 329 326 326 327 327 328 328 328 327 328 328 329 328 329 330 331 331 330
344 344 342 341 342 342 338 333 332 329 325 328 332 334 335 336 337 337 335 332 331 331 332 335 336 338 339 339 339 340 340 340 339 338 338 339 339 339 339 338 337 337 336 335 333 329 331 335 334 333 332 332 332 332 332 332 332 332 333 334 334 334 335 335 333 330 329 329 327 327 328 328 328 328 328 328 328 328 327 327 327 330 331 331 331
344 344 343 341 342 341 337 333 332 328 324 329 335 337 337 337 338 338 336 334 332 331 334 336 338 339 339 339 339 339 339 339 339 338 338 338 338 339 338 338 337 337 337 335 332 326 327 330 331 331 331 331 332 332 332 332 332 333 334 334 334 334 334 333 331 329 328 327 327 328 329 328 328 329 329 329 328 328 327 327 328 330 331 330 330
344 345 343 343 342 339 337 333 332 328 325 333 338 339 340 338 338 338 336 333 330 330 333 335 337 338 338 338 338 338 338 337 337 337 337 338 338 339 338 338 338 338 337 334 333 328 326 328 329 330 331 331 331 332 332 332 332 333 335 335 333 333 332 331 329 327 326 325 325 327 328 328 328 329 328 329 328 328 328 328 329 329 329 329 329
343 344 343 343 341 339 337 333 332 327 327 336 339 340 340 338 339 338 335 332 329 330 331 331 333 336 337 337 337 335 334 334 334 335 337 337 338 338 338 338 338 338 336 334 333 330 327 327 329 330 330 331 331 331 331 331 331 333 335 334 333 332 332 330 327 326 325 323 325 327 328 328 329 329 328 328 328 328 328 328 328 328 328 328 328
343 343 343 343 341 340 337 334 332 327 332 340 340 339 339 339 339 337 335 332 331 331 329 328 329 333 335 335 336 334 333 333 334 334 336 337 338 338 337 337 338 337 336 335 333 331 328 327 328 329 329 330 330 330 331 331 331 332 334 335 333 332 332 330 327 326 326 324 324 324 326 327 328 328 329 329 328 328 327 327 327 327 327 327 327
343 343 343 342 342 341 338 334 330 328 335 340 339 339 340 340 339 338 336 334 333 332 329 329 329 332 334 335 335 335 334 334 335 335 335 336 337 337 336 336 336 335 336 335 334 333 328 326 326 327 328 328 328 329 330 330 331 332 333 334 333 332 332 330 327 327 326 326 325 322 325 329 329 328 329 328 328 328 327 327 327 326 326 326 325
342 342 343 342 342 341 339 336 333 331 336 339 339 340 341 340 340 339 337 335 333 331 330 331 333 336 336 336 336 336 335 334 334 334 334 335 335 335 334 335 335 335 336 335 335 334 331 327 326 326 326 327 327 328 329 329 330 331 333 334 334 333 332 330 328 327 327 327 326 324 324 326 328 329 329 328 328 328 327 327 327 326 326 325 325
342 341 343 342 342 342 339 339 337 335 337 338 338 340 341 341 341 339 337 334 331 331 332 333 335 337 337 337 337 337 336 334 334 334 334 334 334 333 333 335 336 337 337 336 336 335 334 331 327 326 326 327 328 328 328 329 329 330 332 333 334 333 332 331 328 328 328 327 326 326 325 324 326 328 329 328 328 328 327 327 327 326 326 325 325
342 342 343 343 343 341 338 339 338 337 338 338 338 340 340 341 340 340 337 333 331 332 334 335 336 337 337 338 337 337 335 332 333 334 334 334 334 334 334 335 336 337 337 336 336 336 336 332 328 325 326 327 328 328 329 329 329 330 332 333 334 333 332 331 329 329 328 327 326 326 326 324 326 328 329 328 328 327 327 327 326 326 326 324 324
343 343 343 342 342 340 338 339 340 340 339 339 339 340 341 341 340 340 336 332 332 333 335 337 337 337 337 337 338 338 335 333 333 334 334 334 333 333 333 332 333 333 333 334 334 334 333 332 330 326 325 327 328 328 329 329 328 329 331 332 334 334 332 331 329 329 328 327 326 325 325 325 326 327 327 328 328 327 327 326 326 326 325 323 324
343 342 342 342 341 340 340 341 341 340 339 339 340 341 341 341 340 339 334 332 333 334 335 337 337 337 337 338 338 338 336 334 334 334 334 334 333 332 331 329 330 330 328 327 327 327 326 327 329 326 326 327 328 329 329 329 328 329 331 331 333 334 333 331 330 329 327 327 326 326 326 327 328 327 327 328 327 327 326 326 326 326 324 323 324
342 343 342 342 341 341 342 342 341 340 340 340 341 342 341 341 340 337 332 333 335 336 337 338 338 338 337 338 338 338 336 335 334 334 334 334 334 334 333 328 326 326 325 324 323 323 322 323 324 324 326 328 329 330 329 329 329 330 330 331 333 334 333 331 330 329 327 327 326 327 327 327 328 327 327 328 327 327 326 326 326 325 324 323 323
343 343 342 342 342 342 342 342 341 341 341 341 342 342 341 341 337 334 333 336 337 338 338 339 339 338 338 338 337 337 335 335 334 334 334 335 335 334 334 329 324 324 324 324 324 323 323 323 323 324 327 329 330 330 329 329 330 330 330 330 332 334 333 331 330 329 328 327 326 328 328 327 327 326 326 326 325 325 325 326 326 324 323 323 323
342 342 343 343 343 342 342 342 342 342 341 342 342 342 341 339 334 333 335 338 338 338 338 339 339 338 338 337 336 335 334 335 334 333 334 335 335 335 334 329 324 324 324 325 326 324 324 325 325 326 327 329 329 329 330 330 330 330 329 329 332 334 334 332 331 329 329 328 327 328 328 325 325 327 328 326 322 321 324 326 323 322 322 322 323
342 342 343 343 343 342 341 342 342 342 341 341 341 341 340 337 333 333 336 338 337 337 337 338 338 337 337 336 335 334 333 334 335 335 335 334 335 334 334 331 326 324 325 326 328 326 325 325 326 328 328 329 330 331 331 330 330 330 329 328 330 334 334 333 331 329 329 328 328 329 327 324 324 328 329 327 324 321 323 323 321 322 323 322 321
342 343 343 343 343 342 341 341 341 342 341 341 341 340 339 335 332 334 336 336 336 336 337 337 337 336 335 334 334 333 333 335 337 336 334 333 333 333 333 332 328 325 325 326 327 328 327 328 328 329 330 331 331 331 330 329 330 330 329 328 329 333 334 333 330 329 329 328 329 329 327 324 325 329 329 328 328 325 322 317 317 321 323 321 320
342 343 343 343 342 341 340 340 340 341 340 340 340 340 337 333 331 335 336 335 335 335 337 337 336 335 334 334 333 332 333 336 337 335 333 333 332 332 332 332 330 327 327 327 326 327 328 328 329 330 331 331 331 330 330 329 329 330 329 329 330 331 334 333 330 330 329 328 329 329 328 324 326 330 331 330 329 328 322 311 311 316 318 319 319
342 342 343 342 341 340 340 340 340 340 340 340 339 338 335 330 331 335 335 334 334 335 337 337 335 335 334 333 332 332 333 335 336 335 334 333 331 332 331 331 332 331 330 330 328 328 329 330 330 331 331 331 331 330 329 328 328 329 329 329 331 332 333 333 331 330 329 328 328 329 328 325 328 331 332 331 329 329 322 309 308 311 313 319 321
341 342 342 341 340 340 340 339 339 340 339 339 337 336 332 329 332 335 335 334 334 335 336 336 335 334 333 333 333 332 333 334 335 335 334 334 332 332 332 332 333 332 331 331 331 331 331 332 332 332 332 332 331 329 328 328 328 328 329 329 331 333 333 332 331 330 329 328 329 330 329 327 330 332 331 330 330 329 324 312 306 308 312 318 320
341 341 341 340 340 339 340 339 339 340 339 338 336 333 331 330 334 336 335 335 334 334 335 335 334 333 333 333 333 333 333 334 334 334 334 334 333 333 334 333 334 333 332 332 332 332 333 332 332 332 332 332 331 330 328 328 327 328 328 328 330 332 333 332 331 330 329 328 328 330 329 328 330 332 331 330 330 329 327 319 309 310 314 315 314
339 339 340 339 339 338 339 339 339 339 338 337 335 332 332 333 335 336 335 335 334 333 334 335 334 333 332 332 333 333 333 334 334 333 333 333 334 334 334 334 334 333 333 333 332 332 332 332 332 332 332 331 331 330 328 327 328 328 328 328 328 330 332 332 331 329 328 328 328 329 330 329 330 332 331 330 330 329 329 325 319 317 317 316 315
338 338 338 338 338 338 337 336 336 336 336 336 334 332 333 334 335 335 335 335 334 333 334 335 334 333 332 331 333 334 334 335 334 333 334 334 334 334 334 334 333 333 332 332 332 332 332 332 332 332 331 331 330 329 329 328 328 329 328 328 328 329 331 332 331 329 329 329 328 329 330 329 329 331 330 330 330 329 328 328 326 324 321 321 322
338 337 338 337 337 337 335 333 333 334 335 334 333 332 332 334 335 336 335 334 333 333 335 334 333 333 332 331 333 334 334 334 334 333 334 334 334 334 333 333 332 332 332 332 332 332 332 332 331 331 331 330 330 330 329 328 328 329 328 328 327 328 330 332 331 330 329 328 329 329 329 329 330 330 330 330 330 329 328 328 329 327 324 325 325
338 338 337 338 337 336 332 332 333 334 334 332 331 332 333 335 335 335 335 334 333 334 335 334 333 333 332 333 333 333 333 334 334 334 334 334 333 333 332 332 332 331 331 331 332 332 332 332 331 331 331 330 330 330 329 328 328 328 328 327 327 328 330 331 331 330 328 328 329 330 330 330 330 330 330 330 330 329 329 328 329 329 327 327 327
338 338 338 338 337 335 333 334 334 333 332 331 333 334 335 335 335 335 334 333 334 335 335 334 334 334 332 333 333 333 333 333 333 333 334 333 333 332 332 332 332 331 330 330 331 331 331 331 331 331 331 330 330 329 329 328 328 328 327 327 327 328 329 330 330 328 328 328 329 330 331 332 331 330 329 329 330 330 329 329 327 328 328 328 328
338 338 338 338 337 336 335 336 335 333 332 333 335 335 335 335 334 334 335 334 334 334 334 334 334 334 333 333 333 333 333 333 332 333 333 333 332 332 332 331 331 331 330 331 331 331 331 331 331 331 330 330 330 329 328 327 327 327 327 327 326 327 328 329 329 329 327 327 327 329 332 332 332 331 330 329 329 330 330 329 327 327 327 327 327
338 338 338 338 337 336 336 337 336 335 335 335 335 335 335 334 334 335 334 333 333 333 334 334 334 333 333 333 333 333 333 332 332 333 333 333 332 332 332 332 331 331 331 331 331 330 330 330 331 331 330 330 329 329 328 327 327 327 327 327 326 326 327 328 329 330 328 326 325 328 331 331 332 331 330 330 328 329 330 329 328 326 326 326 326
337 338 338 338 337 336 337 337 337 336 336 336 335 335 334 334 334 334 334 333 333 333 333 334 333 333 333 333 333 333 332 332 332 333 333 332 333 333 332 332 332 331 331 331 330 330 330 330 330 331 330 329 329 328 328 328 328 327 327 326 326 327 328 328 330 331 329 326 325 327 329 331 332 331 331 330 329 329 330 329 329 328 326 327 326
338 338 338 338 337 336 337 337 337 336 336 335 335 335 334 334 334 335 335 334 333 333 333 333 333 333 334 334 333 333 332 332 332 333 333 333 333 333 333 333 332 332 331 330 330 331 331 330 330 331 331 329 328 328 328 328 328 328 327 326 327 328 330 330 330 330 329 326 325 326 329 330 331 331 330 329 328 328 329 328 328 328 327 326 326
337 337 337 338 337 336 337 337 336 336 335 335 335 335 335 335 335 336 335 334 333 333 334 334 334 334 334 333 333 333 332 333 333 333 333 333 333 333 333 332 332 332 331 330 331 331 331 331 330 330 331 329 328 329 329 329 328 328 328 328 328 329 331 331 331 331 328 327 326 325 327 329 329 329 328 328 328 328 328 327 327 327 327 326 326
337 337 337 337 338 337 337 337 336 336 336 336 336 336 336 336 336 336 335 334 334 335 335 335 335 334 333 333 333 333 333 333 333 332 332 333 333 332 333 332 332 332 330 330 331 331 332 331 331 330 330 329 328 329 329 328 328 328 328 328 329 329 330 330 331 331 330 330 329 327 328 328 327 327 327 327 328 328 328 328 327 326 326 326 326
336 336 337 337 337 337 337 337 336 337 336 335 336 336 336 336 336 335 334 335 336 335 335 334 333 332 332 332 332 333 333 333 332 332 332 333 332 332 332 332 333 332 330 331 331 331 331 331 331 330 329 329 328 329 328 328 328 328 328 328 328 328 328 329 330 330 331 331 331 330 330 329 327 328 328 328 327 327 328 328 328 327 327 326 325
334 335 336 336 337 337 336 336 336 336 335 334 335 335 336 335 334 334 335 336 336 334 333 332 330 329 329 329 330 331 331 332 331 332 332 332 332 332 332 332 332 331 330 331 332 332 331 331 331 330 329 329 328 329 328 328 329 328 327 327 327 327 327 328 328 329 329 329 330 330 331 330 329 329 329 328 328 328 327 328 329 328 328 327 326
334 334 335 335 336 336 336 335 336 335 334 334 334 334 335 334 332 334 336 336 335 333 331 330 329 329 329 329 329 329 330 331 331 331 332 332 332 332 331 331 331 331 330 331 332 332 332 332 331 330 328 329 329 329 329 329 329 328 328 328 328 327 328 327 327 328 328 328 329 329 329 330 329 329 328 328 329 328 327 327 328 328 328 328 327
333 333 334 335 335 336 336 335 335 335 335 335 334 334 335 333 333 335 336 335 334 334 333 331 330 329 329 330 329 329 329 329 330 330 330 331 331 331 330 330 330 330 330 330 331 331 332 332 331 330 328 328 329 329 330 330 329 328 329 328 325 327 329 327 325 327 327 328 328 328 328 329 329 329 329 329 329 329 328 327 327 327 327 328 328
332 332 333 334 335 336 336 335 335 335 335 335 334 335 335 334 335 336 335 335 334 334 333 332 331 329 327 328 328 328 328 327 327 327 327 328 329 329 329 330 330 330 330 330 330 330 331 331 331 330 328 328 329 329 330 330 329 328 328 327 327 329 330 326 326 326 326 327 327 327 328 328 329 329 329 329 329 328 328 327 327 327 327 327 328
331 331 332 333 335 336 336 336 335 335 335 335 335 335 335 335 336 335 333 333 333 333 333 331 330 328 327 327 327 328 327 325 325 325 325 326 328 329 329 329 330 330 330 330 330 329 329 330 331 330 328 329 329 330 330 329 329 328 327 328 329 330 327 325 327 327 326 327 326 326 328 328 328 328 328 328 327 327 326 326 326 326 326 326 326
331 330 331 332 334 334 335 336 335 335 336 335 335 335 335 335 335 334 332 332 331 332 332 330 329 328 327 327 327 328 327 324 324 324 325 326 327 328 329 329 330 330 330 330 330 329 329 330 330 330 329 329 329 329 330 329 329 328 328 328 328 328 326 325 327 327 328 328 327 327 327 327 327 327 326 326 326 325 324 324 325 325 325 325 326
332 330 331 331 332 333 334 335 335 335 335 335 334 335 335 335 333 332 331 331 330 331 330 329 328 327 326 325 326 327 326 324 324 324 324 326 327 327 329 329 328 328 329 329 329 329 329 329 329 329 329 329 329 329 329 329 329 328 328 328 328 327 326 325 326 326 328 328 328 327 327 326 326 325 325 325 324 323 324 324 324 324 324 325 325
331 330 330 331 331 332 333 333 334 335 335 334 335 335 335 334 332 330 330 329 329 328 328 327 327 326 325 324 324 325 325 325 325 325 325 326 326 327 327 327 326 326 327 327 327 328 328 328 328 329 329 329 329 328 329 329 328 328 328 327 326 326 325 325 325 325 326 327 328 328 326 326 325 326 326 325 323 323 324 325 325 324 324 324 324
330 330 330 331 331 331 332 333 333 334 335 335 335 334 333 332 330 330 329 327 326 326 327 327 327 325 324 324 324 324 325 326 325 325 325 325 325 325 325 325 324 324 326 326 326 327 328 328 328 328 328 328 328 328 329 329 328 328 328 327 326 326 325 324 325 325 325 326 327 327 326 326 326 326 325 324 324 324 324 323 324 323 322 322 321
330 330 331 330 331 331 331 332 333 334 334 334 334 333 331 330 329 330 328 325 325 326 327 327 326 325 324 324 323 324 325 325 324 323 324 324 325 325 324 325 325 324 326 326 327 327 327 327 327 327 327 327 328 328 328 328 328 328 328 328 327 326 326 325 324 325 324 324 325 326 325 325 325 324 323 323 323 321 319 319 319 318 316 316 315
Wind_Speed
21 20 20 19 19 21 24 25 23 22 21 20 21 22 22 22 23 24 24 24 24 25 25 25 25 26 26 26 26 27 27 27 26 26 25 25 23 22 22 22 21 20 19 19 18 18 17 17 18 19 19 21 22 22 22 21 21 22 22 20 20 20 19 19 19 19 18 18 17 16 16 16 16 15 16 17 18 18 18 18 17 18 18 18 20
23 21 21 20 20 22 24 25 23 22 21 21 22 22 23 22 23 23 24 23 23 25 25 25 25 26 25 25 25 25 25 25 25 25 25 24 22 21 21 21 21 21 20 19 18 18 18 18 18 19 20 21 22 21 21 21 21 23 21 20 19 19 19 19 19 18 18 18 18 17 17 16 16 16 16 16 18 18 17 17 17 17 17 18 20
24 23 21 20 22 23 25 25 24 23 21 21 22 23 23 22 23 23 23 23 24 25 25 25 25 25 24 23 24 24 23 23 23 23 23 22 21 20 20 20 21 21 20 19 18 18 18 18 18 19 20 21 21 21 20 20 21 21 19 19 19 19 19 19 18 18 18 18 19 19 18 17 16 15 15 15 15 17 17 16 16 16 16 18 19
25 24 22 21 22 24 25 25 24 23 22 22 23 24 23 23 23 23 24 24 25 25 26 26 24 25 24 24 23 23 23 21 21 21 21 21 20 18 18 19 20 20 19 19 18 17 17 18 18 19 20 19 19 19 19 19 20 19 17 17 17 17 18 19 16 16 18 19 20 20 19 17 15 14 14 14 14 15 16 16 16 16 15 16 18
27 25 24 23 23 25 25 26 25 23 22 22 24 24 24 23 23 24 24 25 26 26 26 25 23 23 23 23 23 23 22 21 20 20 20 20 18 17 17 17 18 19 19 18 18 18 18 18 19 19 18 18 18 18 17 17 17 17 15 15 14 12 12 15 15 14 17 19 20 21 19 17 16 13 12 13 14 15 15 15 15 15 15 15 16
28 27 26 24 25 26 26 26 24 23 23 23 24 24 24 23 24 25 25 25 26 26 25 24 22 22 21 21 21 21 21 20 20 19 18 17 17 17 16 16 16 18 18 18 18 17 18 19 19 18 18 18 17 17 17 16 15 14 13 12 12 10 7 9 13 12 13 17 20 21 19 17 16 14 13 13 14 13 13 14 14 14 14 14 14
29 29 27 25 26 26 26 26 24 23 23 23 24 24 24 23 24 24 25 25 24 25 24 22 21 21 20 19 19 20 21 21 20 19 18 16 15 15 16 16 16 17 17 17 17 17 18 19 18 17 18 17 17 16 16 15 13 12 11 10 8 6 5 6 10 10 11 16 19 20 19 18 16 15 14 13 13 12 12 13 13 14 14 13 13
29 29 27 27 27 26 26 26 24 23 23 23 23 25 24 23 24 24 24 24 23 23 22 21 21 20 19 19 19 20 22 22 20 19 18 16 15 15 16 16 16 17 17 16 16 16 18 19 18 17 17 17 16 16 15 14 13 11 10 8 5 3 4 7 8 9 10 14 17 19 19 17 15 14 14 14 13 13 12 12 13 13 13 12 12
28 27 27 28 27 26 26 26 25 23 23 22 23 25 24 23 23 23 23 23 22 21 20 20 20 20 19 19 19 21 21 20 19 19 18 17 17 16 16 17 17 17 16 14 14 16 18 17 17 17 17 17 16 15 14 13 12 11 10 8 5 4 6 9 10 10 11 14 16 18 18 17 16 14 14 14 13 12 12 12 13 12 11 12 12
26 27 28 28 28 26 26 26 25 23 23 22 23 24 23 23 22 22 22 22 21 20 19 18 19 19 19 19 19 20 19 18 18 18 18 17 17 16 16 16 15 14 13 12 13 15 17 17 17 17 17 17 16 15 13 12 12 12 11 8 7 7 10 12 11 11 12 14 16 18 18 17 17 15 15 15 14 13 13 14 14 12 11 12 12
26 27 28 28 28 26 26 26 24 23 22 22 23 23 22 22 21 21 21 21 20 19 18 17 17 18 19 19 18 18 17 17 17 16 17 16 17 16 15 14 13 14 13 12 14 15 17 18 18 17 17 16 15 14 13 12 12 13 12 9 9 10 13 13 12 12 12 14 15 17 17 17 17 16 15 14 14 14 15 15 14 12 12 11 11
27 28 28 28 26 26 26 25 24 23 22 22 22 21 21 21 21 20 20 20 20 19 18 17 17 17 18 18 17 17 16 15 15 15 16 16 17 16 16 14 13 14 14 13 13 14 16 17 17 16 15 15 14 13 13 12 12 14 12 9 9 11 13 12 12 12 12 13 15 17 17 16 16 15 15 15 14 15 15 15 13 12 12 11 11
28 28 28 27 25 25 25 25 24 23 22 22 21 21 20 21 21 20 20 20 20 19 19 18 17 17 17 17 16 15 15 14 14 14 15 15 15 15 16 15 14 13 13 13 12 13 15 15 15 15 14 13 13 13 12 12 12 14 12 10 10 11 11 11 11 12 13 13 15 17 17 16 15 14 14 14 14 15 15 14 13 12 12 11 10
29 29 28 27 25 25 25 25 24 23 22 21 21 21 20 21 21 20 20 19 19 19 19 18 18 17 16 16 15 15 15 15 14 13 14 15 15 14 15 14 13 12 11 12 11 12 13 14 14 14 13 12 12 12 12 12 12 14 13 10 10 11 10 11 11 12 13 13 14 14 15 15 15 14 13 13 13 14 14 13 12 12 12 11 11
29 29 28 27 26 25 25 25 24 23 23 22 22 20 19 20 20 19 19 19 18 18 18 18 17 16 16 15 15 14 14 14 14 13 13 14 14 14 14 13 12 11 11 11 11 12 12 12 13 13 13 12 12 12 12 12 12 14 13 9 9 11 10 11 11 11 12 12 12 12 14 15 13 13 13 13 13 14 13 13 13 13 12 12 12
29 29 28 27 26 25 25 24 23 23 23 23 23 21 19 19 19 18 18 18 17 17 18 17 17 16 16 15 14 14 14 13 14 13 13 13 13 13 13 13 12 11 12 11 10 11 10 11 11 12 12 11 11 11 11 12 13 14 13 9 9 10 10 10 10 11 11 11 11 10 12 14 13 13 12 12 13 13 12 13 13 13 13 13 13
28 29 28 26 26 25 24 23 21 22 23 23 22 21 20 18 18 17 17 17 16 16 16 16 16 16 15 15 15 14 13 13 14 13 13 12 12 12 12 12 12 12 12 11 10 10 9 8 9 9 10 10 9 9 10 12 12 13 13 9 8 11 10 9 9 11 11 10 9 9 10 12 13 13 11 12 12 12 12 12 12 13 13 12 13
28 28 27 26 26 25 24 23 21 21 22 22 21 20 19 18 17 16 17 17 16 16 16 15 15 15 14 14 14 14 12 12 13 14 13 13 12 12 12 11 11 11 11 10 9 9 8 6 7 7 8 8 8 8 9 11 12 12 13 10 7 11 11 9 9 10 10 9 8 9 9 10 12 12 11 11 10 11 11 11 11 12 11 11 13
27 26 26 26 26 25 25 24 23 23 23 23 21 19 18 17 16 16 16 16 16 15 15 15 15 14 13 13 13 12 12 11 12 13 13 13 12 12 11 11 11 10 10 9 9 8 7 6 6 6 7 7 7 7 8 10 10 10 12 11 9 10 11 9 9 9 8 8 8 8 9 10 11 11 11 10 10 10 9 10 11 11 10 11 13
26 26 26 26 26 26 25 25 24 24 24 23 21 19 18 16 16 16 16 15 15 15 15 14 14 14 13 13 12 12 11 11 12 12 12 12 12 12 11 10 9 8 8 8 8 8 7 8 7 6 6 6 6 7 7 8 8 8 10 11 10 11 12 10 9 8 8 8 8 9 9 10 10 9 10 10 9 9 8 9 10 9 9 11 13
25 26 26 26 25 25 26 26 25 24 23 22 21 19 17 16 16 16 15 14 14 14 14 14 15 14 14 13 12 12 11 10 11 11 10 10 10 11 10 10 9 8 9 9 10 10 10 9 9 7 7 7 7 7 6 6 6 7 9 10 10 11 13 12 9 9 9 9 8 9 9 10 9 8 10 10 9 8 7 8 8 8 9 10 11
25 25 25 25 25 25 25 26 25 24 23 22 20 18 17 16 16 16 15 14 14 14 15 15 15 15 14 13 12 11 10 10 10 9 9 9 9 9 10 10 10 10 11 12 13 13 12 11 10 9 8 7 6 5 5 5 5 5 7 9 10 11 13 12 10 9 9 9 9 10 9 9 8 8 9 10 9 8 7 7 7 7 8 9 9
26 26 25 25 25 25 25 26 25 24 23 22 20 18 17 17 17 17 16 15 14 14 15 14 14 14 14 13 12 11 10 9 8 8 9 9 9 9 10 9 10 11 12 12 12 13 13 12 12 11 9 7 5 5 5 5 5 5 6 8 10 11 13 13 10 9 9 9 9 10 9 9 9 10 10 8 7 8 8 6 5 6 8 9 9
26 27 26 25 25 26 25 25 25 24 23 22 20 18 18 19 18 17 16 15 14 14 14 14 14 14 13 13 12 11 10 9 8 8 9 9 8 9 9 9 9 10 10 10 10 12 12 13 13 11 9 7 5 5 5 5 5 5 5 6 9 11 13 13 11 10 9 9 10 10 9 9 10 11 10 7 7 7 8 5 5 7 7 7 8
25 27 26 25 25 26 26 25 24 23 22 21 20 19 19 20 19 17 16 15 14 14 14 14 14 13 13 12 11 11 10 10 9 9 8 8 8 8 9 10 9 9 8 8 9 11 11 12 11 10 8 6 5 5 6 6 5 4 5 5 7 10 13 13 12 11 10 10 10 10 9 9 11 11 10 9 8 6 6 5 6 8 7 6 7
24 26 26 25 25 26 26 26 25 23 21 21 20 19 20 20 19 17 16 15 14 14 14 14 14 13 12 11 11 11 10 10 9 8 7 7 7 7 7 8 9 8 7 7 8 9 9 9 8 8 7 6 5 5 5 6 6 4 4 5 6 9 12 14 13 12 11 11 11 11 8 9 11 11 10 9 7 6 5 5 6 8 8 7 7
24 24 25 25 25 26 26 25 24 23 21 20 20 20 19 19 18 17 16 16 15 14 14 14 13 12 11 10 10 10 9 9 8 7 7 6 6 6 6 6 7 7 6 6 7 8 8 7 6 6 5 5 5 5 5 5 6 4 3 4 5 7 11 14 14 13 12 11 12 10 9 9 11 12 9 6 6 6 5 5 6 7 8 7 7
23 24 25 26 26 26 26 24 23 22 21 20 20 20 19 19 17 17 16 15 15 14 14 13 12 12 11 10 9 9 9 8 7 6 6 6 6 6 6 6 6 6 5 5 5 6 6 5 5 5 4 4 4 4 4 4 5 4 3 3 4 6 9 13 15 13 12 12 12 11 9 9 12 12 7 6 6 5 5 5 6 7 8 7 7
22 24 24 25 25 25 25 23 22 22 22 21 20 19 19 18 18 17 16 15 15 13 13 13 12 11 11 10 9 8 8 8 7 6 6 6 6 5 5 6 6 5 4 4 4 5 4 4 4 4 4 4 3 3 3 4 4 4 2 2 3 5 7 12 14 14 13 12 12 11 9 9 13 11 7 8 8 5 5 5 6 7 7 7 7
22 24 24 25 25 24 23 22 22 22 22 21 20 19 19 18 17 16 16 15 14 13 13 13 12 11 11 11 9 8 8 8 8 7 6 6 6 6 6 6 5 5 3 3 3 3 3 3 3 3 3 3 3 2 2 3 3 4 3 3 4 5 7 11 14 14 13 12 11 12 11 9 12 12 9 9 9 7 5 5 6 6 6 7 7
23 24 24 25 24 22 23 22 23 23 22 21 20 19 18 18 16 16 15 14 14 13 13 13 12 11 11 11 9 8 9 8 8 8 7 6 6 6 6 6 6 4 3 3 3 3 2 2 2 3 3 4 4 4 3 4 4 4 4 4 5 7 8 11 14 14 13 12 11 13 12 10 12 13 10 8 9 7 4 5 5 4 5 6 6
24 25 25 25 24 22 23 24 24 24 23 22 20 19 18 17 16 16 15 14 14 13 13 13 12 11 11 11 9 8 9 9 8 8 8 7 6 6 6 6 5 4 2 3 3 3 2 1 2 3 4 5 5 5 5 5 5 5 4 4 6 7 9 12 13 13 13 12 12 13 12 11 12 13 11 8 7 4 4 6 5 3 4 4 6
25 25 24 24 23 23 26 26 25 23 22 21 20 19 18 17 16 16 15 15 14 14 13 13 12 11 11 11 8 7 8 9 9 8 8 7 6 6 6 6 5 4 3 4 4 4 3 3 3 4 5 6 6 5 5 6 5 5 5 5 5 7 9 12 13 13 13 12 13 13 12 11 11 12 11 9 6 4 4 5 5 4 3 2 4
24 23 24 24 24 26 27 24 23 22 22 21 20 20 19 18 17 16 16 15 15 14 13 12 11 10 10 10 8 8 9 9 8 8 8 8 7 6 6 5 5 4 4 5 4 5 5 4 5 6 7 7 6 6 5 5 5 5 5 5 6 8 10 11 11 12 12 13 13 13 12 12 10 9 10 8 6 6 6 5 4 4 3 3 3
23 24 25 25 25 26 25 22 22 22 22 21 20 20 19 18 18 17 15 15 15 13 12 11 10 9 9 9 9 9 10 9 8 8 8 8 7 6 6 5 5 5 5 5 5 5 6 5 5 6 7 7 7 7 6 5 6 6 5 6 6 7 9 10 10 10 12 13 13 12 12 11 9 8 8 8 7 6 6 4 3 3 3 3 2
25 27 28 27 26 25 24 24 23 23 22 21 20 19 18 18 18 17 16 15 14 12 11 10 9 9 8 7 8 9 9 9 8 7 8 8 7 7 7 6 6 6 6 6 5 5 6 7 6 6 7 8 8 8 7 6 7 7 6 6 7 7 8 8 9 9 11 12 11 12 12 11 9 8 7 7 7 5 5 5 3 4 3 1 3
27 29 30 29 28 25 25 25 24 24 23 21 20 19 18 18 18 17 15 14 12 10 9 9 8 7 6 6 7 7 7 8 7 8 8 8 8 8 7 7 7 6 6 6 6 6 6 6 7 7 6 7 9 9 9 8 8 8 7 7 7 7 7 8 9 9 10 11 10 11 13 11 10 8 8 7 6 5 6 6 4 5 4 1 1
27 30 30 30 29 27 27 26 26 25 24 22 20 19 19 18 18 16 14 12 10 9 8 7 7 6 5 5 6 6 7 7 8 8 9 8 9 8 7 7 7 6 5 6 7 8 7 5 7 8 6 7 10 10 11 10 10 9 8 7 6 6 6 6 8 8 9 10 9 12 13 11 10 8 8 7 6 6 7 6 5 6 5 4 3
28 30 31 31 29 29 29 27 26 25 24 23 21 20 19 18 17 15 13 11 10 8 7 7 6 6 5 6 6 7 8 8 9 9 9 9 9 8 8 7 7 6 6 7 8 9 9 7 8 9 8 8 9 11 12 13 12 11 10 9 8 7 6 6 7 7 8 8 9 12 13 10 9 8 8 7 6 6 6 5 5 6 6 5 4
29 30 31 32 32 31 29 27 27 26 24 24 23 22 20 18 17 15 13 12 11 10 8 8 7 6 7 8 8 8 8 8 8 7 7 7 7 7 8 7 7 6 7 8 9 9 9 9 7 8 9 10 11 12 13 14 15 14 13 12 10 9 8 8 8 7 7 6 7 10 11 9 8 8 7 7 7 6 6 5 4 4 4 5 6
26 29 31 33 35 33 31 28 28 27 26 24 23 22 21 20 18 16 15 13 12 11 9 9 9 9 9 9 8 8 8 7 6 6 6 5 5 6 7 7 7 7 7 8 9 9 9 8 7 7 9 12 14 13 14 16 16 14 13 14 12 10 9 8 8 6 5 3 2 6 7 8 9 9 7 6 7 7 6 5 4 4 3 3 5
26 29 29 29 31 32 32 30 28 27 27 25 24 22 22 21 19 17 16 13 12 12 11 11 11 11 10 10 9 9 8 7 6 6 5 5 6 6 7 7 8 8 9 9 9 9 8 8 8 8 10 13 14 15 16 12 9 10 10 11 11 11 11 10 10 8 5 2 1 2 2 4 7 7 7 7 6 6 6 5 5 4 4 3 5
27 28 25 24 26 28 30 29 28 27 26 26 24 22 21 20 18 17 15 13 13 13 12 12 12 10 10 10 9 9 8 8 7 6 5 5 6 7 8 8 8 9 10 10 9 9 9 8 7 9 12 14 14 16 14 6 5 10 9 5 3 5 8 10 11 11 7 4 1 2 2 1 2 2 4 6 7 6 6 5 4 5 5 4 5
24 25 25 25 27 29 30 29 28 26 24 25 24 22 20 19 17 15 14 14 14 14 12 12 11 9 9 9 9 9 10 9 8 7 6 7 7 7 8 9 9 9 9 9 9 8 9 8 7 9 12 14 13 14 11 6 9 11 6 3 2 2 2 5 9 11 9 5 3 3 3 3 4 3 3 4 4 4 4 4 3 4 5 4 5
23 24 26 29 30 32 32 30 28 25 23 24 24 21 19 18 16 14 14 14 14 14 14 14 12 10 9 9 10 10 10 9 8 8 8 8 8 7 7 8 8 8 7 6 7 8 8 7 7 8 11 13 12 12 10 9 13 9 3 3 3 2 1 4 6 8 9 7 5 5 5 4 4 4 5 4 2 2 2 2 2 2 2 1 2
24 25 26 30 32 33 32 31 29 25 22 23 23 20 19 19 18 17 17 16 16 16 17 16 14 12 10 10 10 11 10 8 8 8 8 7 7 7 7 7 7 7 6 6 6 7 7 7 7 8 10 11 12 11 10 12 14 7 3 5 1 1 7 8 4 3 7 10 8 7 6 5 5 5 5 5 5 5 3 2 2 2 4 5 4
26 25 25 28 31 31 30 31 29 26 23 21 21 19 19 19 19 19 20 20 19 18 18 17 15 13 11 10 10 11 9 8 7 8 8 7 6 6 7 7 7 7 6 6 6 7 7 8 8 8 9 10 11 11 11 13 13 7 5 6 5 4 13 10 5 3 4 6 9 9 7 6 6 6 6 6 6 6 5 5 6 6 8 8 8
27 25 26 28 29 29 28 30 29 26 24 22 21 20 20 19 19 19 20 20 20 19 19 17 15 13 13 12 12 12 10 8 8 8 9 7 6 7 8 7 7 6 6 7 7 7 8 8 8 9 9 9 9 11 12 12 11 7 5 3 3 9 13 10 11 11 5 2 6 9 9 9 8 8 8 7 6 7 8 9 9 8 8 8 7
24 23 26 26 27 27 27 28 28 27 25 24 22 21 20 19 19 21 21 20 19 19 19 17 15 14 15 15 13 12 11 9 8 8 8 7 7 9 9 8 6 6 6 7 6 6 7 8 8 9 9 9 8 9 11 12 10 8 7 7 10 12 11 10 14 14 8 4 4 5 8 10 9 10 9 8 8 9 9 8 7 7 7 7 7
20 18 19 20 23 25 26 26 26 27 26 24 23 21 20 20 22 24 23 21 20 19 19 17 16 16 16 15 14 12 11 10 9 8 7 6 7 9 9 7 5 4 5 5 5 5 6 7 7 8 9 9 9 8 10 10 9 8 9 11 14 13 10 9 12 14 10 6 5 6 8 9 8 10 9 8 9 8 7 7 7 7 8 8 9
17 14 13 16 20 22 22 24 25 26 26 25 24 22 20 22 25 25 24 22 21 21 20 18 18 18 17 15 14 12 11 11 9 8 7 6 7 9 8 7 4 3 4 5 5 6 6 6 7 8 9 9 9 9 9 10 9 9 9 10 14 14 10 8 13 17 13 9 7 7 9 10 9 10 8 7 8 8 8 9 9 9 10 10 11
Wind_Direction
153 150 149 151 150 148 148 149 149 148 144 141 139 134 132 130 130 129 130 128 124 123 120 120 121 121 121 120 119 117 116 115 117 118 117 115 115 114 111 108 108 107 107 107 105 103 102 101 101 101 101 102 102 100 101 101 102 99 95 91 88 87 84 81 79 80 81 80 81 86 90 94 90 80 77 81 89 93 93 90 86 82 77 77 80
150 150 149 152 153 149 149 150 151 149 145 144 140 136 134 133 133 132 131 129 127 124 122 121 120 120 119 118 118 117 115 114 114 114 114 114 115 113 106 105 108 109 107 106 105 103 102 103 103 103 103 104 103 103 103 103 104 98 94 92 90 89 86 84 79 79 82 80 82 87 92 96 91 84 77 77 84 89 91 89 86 83 79 77 78
144 150 150 153 155 150 150 151 152 150 148 146 143 139 136 135 135 133 131 129 128 126 124 123 121 121 119 119 119 118 116 114 113 111 111 113 114 108 103 105 107 108 108 106 105 104 103 104 105 105 106 105 103 104 103 103 104 99 96 93 91 92 86 82 77 76 83 87 88 90 93 96 93 87 77 75 77 81 89 89 87 84 80 78 78
144 151 150 154 156 150 152 154 155 152 150 149 145 140 137 137 135 133 131 131 131 128 127 124 121 118 115 116 117 118 117 117 116 114 115 115 114 107 105 107 105 108 110 107 106 106 106 107 107 108 107 104 105 104 101 103 105 101 100 97 93 92 81 76 76 74 81 91 95 93 94 95 94 90 83 82 73 73 87 88 86 85 81 79 78
145 150 151 155 155 152 155 157 156 154 152 151 146 140 138 137 135 133 131 133 133 130 128 125 121 116 114 114 115 117 117 118 117 116 117 116 115 110 108 109 106 109 112 109 108 108 109 110 110 109 107 106 107 105 104 108 106 101 103 104 102 99 82 74 80 81 83 90 97 98 96 94 95 91 87 93 82 74 84 85 84 82 81 80 78
147 151 153 157 155 154 158 158 157 155 153 151 146 141 139 137 135 132 131 133 133 131 129 126 122 118 115 114 115 117 118 117 115 114 114 113 113 112 112 111 107 108 111 109 110 112 114 114 112 110 108 108 109 107 108 108 105 99 97 103 109 110 92 72 81 87 86 90 97 99 97 96 93 89 90 97 91 81 79 80 82 80 79 79 77
148 152 155 158 155 156 159 159 157 155 154 151 146 142 140 137 135 133 133 133 133 133 131 128 123 119 117 117 118 119 120 118 115 116 116 112 111 114 115 113 110 109 110 109 110 113 116 115 113 113 112 113 113 111 108 104 103 99 92 92 99 102 99 86 86 93 93 94 99 102 100 98 92 89 92 95 92 85 78 78 80 79 79 79 78
150 154 157 156 155 158 159 159 158 155 153 150 146 143 141 138 136 135 136 135 134 134 132 131 126 121 120 120 122 123 122 120 120 122 122 116 115 118 117 115 114 113 112 111 110 113 117 117 116 116 115 115 116 113 108 105 101 94 86 80 85 99 113 115 110 110 105 98 101 108 108 104 98 90 89 93 95 89 86 84 81 82 82 82 81
152 155 155 155 155 158 159 159 158 155 153 150 147 144 142 140 139 138 139 139 137 136 134 133 129 125 123 125 126 126 124 125 128 131 129 125 124 123 123 123 120 118 116 112 111 117 119 117 117 118 119 121 119 115 109 104 96 86 75 70 82 86 98 121 132 123 112 104 101 107 110 107 103 93 90 96 97 89 90 91 89 88 87 85 83
152 155 155 155 155 158 159 159 158 156 155 151 148 145 144 143 141 139 140 141 139 138 137 133 131 130 129 132 133 131 129 131 135 138 136 134 130 125 129 133 128 121 115 110 109 118 124 120 122 124 125 124 119 114 107 98 89 78 71 74 86 85 96 117 128 121 113 109 104 105 106 105 102 97 95 98 96 88 87 92 93 92 88 87 86
153 155 155 154 154 157 158 159 158 157 156 152 148 146 146 145 142 139 139 140 140 139 136 133 133 134 135 137 138 136 135 137 139 140 140 138 133 127 129 133 127 119 113 109 104 114 126 125 126 128 126 122 117 111 102 92 84 75 72 82 95 97 103 110 115 115 113 111 110 110 109 107 106 103 100 98 96 92 90 95 98 95 90 88 87
153 154 153 152 153 157 158 159 159 158 157 152 149 147 147 145 142 139 139 139 140 139 136 135 136 137 138 140 140 139 139 141 141 141 141 139 135 129 127 127 122 121 118 112 106 111 122 124 125 126 124 120 113 106 96 88 80 74 77 93 107 111 110 107 109 112 111 112 114 112 110 108 106 106 105 102 99 98 96 98 100 97 93 89 87
151 151 149 151 154 158 158 160 160 160 157 152 150 148 149 148 143 141 140 140 140 139 139 139 140 138 139 139 138 139 138 136 136 138 138 135 135 133 129 125 119 120 119 114 111 113 119 122 124 126 124 120 111 103 95 85 77 73 82 104 118 122 117 108 106 108 108 110 116 116 116 114 111 108 107 106 104 104 102 100 99 96 95 90 86
148 148 148 152 155 157 160 161 162 160 155 151 152 152 152 150 146 143 141 142 141 141 140 140 140 139 139 137 135 134 131 127 126 128 131 128 128 132 134 131 122 118 116 113 111 112 120 124 126 128 126 121 113 105 95 83 75 73 82 107 127 130 123 113 107 106 106 108 117 123 120 115 115 114 111 109 107 107 106 103 98 95 96 91 84
145 146 149 152 154 158 162 163 162 161 156 154 156 154 154 152 148 145 143 143 143 141 139 137 135 136 137 134 132 130 124 121 120 122 128 129 127 129 134 136 134 127 120 116 111 107 115 125 128 129 126 121 113 107 96 81 73 74 80 102 134 140 131 118 110 108 107 107 112 117 117 116 118 117 114 112 111 109 107 104 98 95 94 92 89
144 148 150 151 154 158 160 161 162 161 158 158 159 155 155 154 150 147 145 145 143 140 136 134 134 135 137 134 132 126 119 117 119 120 126 132 131 129 131 133 135 131 123 119 113 107 108 118 127 129 127 122 114 107 95 79 72 75 80 100 139 146 139 124 113 110 109 109 110 110 115 124 124 118 115 113 111 109 109 106 101 98 95 93 94
146 149 148 150 153 157 159 159 160 161 161 161 160 157 157 156 152 149 145 145 144 138 134 134 136 138 138 135 130 123 119 118 119 121 124 129 130 129 128 127 127 125 122 120 118 113 108 111 121 130 129 122 115 107 94 79 71 75 81 96 142 153 146 130 116 112 110 111 111 107 110 120 121 117 116 113 112 110 109 106 103 101 98 100 99
146 147 147 150 154 158 160 157 160 162 162 163 162 160 158 158 154 149 146 147 144 136 134 136 139 140 139 135 130 123 120 119 119 120 120 123 124 125 124 124 123 121 122 123 121 117 113 115 119 128 132 124 116 107 94 79 69 76 82 85 123 154 154 139 122 114 112 113 110 112 113 116 119 117 115 112 112 110 108 106 105 103 101 106 104
145 146 147 151 156 160 159 158 163 163 164 164 162 160 160 159 154 150 148 147 142 137 137 139 140 142 141 137 133 128 121 117 118 118 118 118 119 120 119 119 121 120 123 124 126 127 126 128 122 118 122 121 117 108 93 81 71 77 86 84 103 146 155 148 131 117 114 114 111 111 110 112 117 116 112 110 108 108 109 107 107 105 102 106 105
145 147 149 155 159 161 161 162 165 165 166 164 161 161 161 158 153 150 149 146 142 140 142 141 140 142 143 141 141 137 127 120 120 119 120 118 114 115 112 109 113 118 120 120 123 126 123 121 119 110 107 113 112 104 93 83 76 83 93 91 104 141 156 157 141 124 119 116 112 109 107 109 111 107 108 109 108 108 109 107 108 106 104 106 106
146 149 153 158 161 162 163 164 165 165 165 162 161 162 159 155 152 151 149 148 143 142 143 141 141 145 147 148 150 146 134 128 124 122 122 118 113 112 108 104 107 113 112 110 108 106 106 109 116 114 109 114 109 101 93 82 79 89 98 96 108 143 158 159 148 133 127 122 117 115 112 110 112 109 111 114 111 110 107 105 107 105 105 104 105
149 152 155 158 160 162 163 163 163 164 164 162 161 159 158 155 154 154 152 149 144 144 144 143 146 150 152 154 152 146 139 135 130 128 125 121 118 114 109 104 108 111 107 104 103 104 106 106 109 111 110 112 105 98 89 72 70 82 96 101 110 140 160 160 154 144 135 130 126 126 124 117 118 116 118 122 120 119 115 110 112 112 111 107 106
154 155 155 157 159 161 163 162 162 163 165 162 160 159 159 159 158 157 155 151 148 147 146 147 152 153 154 153 148 143 141 138 132 129 127 127 125 119 114 111 114 112 105 102 104 105 104 103 102 100 102 104 99 85 70 58 66 81 93 107 113 132 157 164 161 154 143 137 135 138 138 128 122 120 124 127 115 117 121 124 126 119 113 111 112
158 157 155 155 159 162 162 162 163 165 166 163 162 163 163 162 161 160 158 154 150 150 151 153 155 155 153 150 146 144 143 139 135 134 135 134 131 128 125 123 121 116 112 110 107 105 102 102 99 98 101 102 97 74 56 57 71 92 99 111 120 130 154 168 167 161 152 146 146 150 149 135 127 129 137 129 102 109 123 136 134 119 114 114 117
157 155 154 155 159 163 164 164 167 168 169 167 165 167 167 166 164 164 161 156 155 156 158 158 157 156 154 150 148 148 148 144 143 144 144 143 142 140 134 129 126 122 124 122 112 107 106 104 100 100 101 95 90 71 55 59 71 100 107 113 128 135 154 171 173 167 162 156 155 161 159 140 134 139 143 129 112 113 123 138 140 130 130 127 121
157 153 152 155 160 164 166 168 170 170 173 172 169 170 171 170 168 167 163 161 163 164 163 162 160 159 157 153 151 153 152 147 149 150 149 153 153 147 138 133 132 131 131 128 120 114 112 108 103 102 98 86 78 65 55 58 65 91 110 112 134 145 155 171 178 176 172 163 161 167 165 147 143 146 142 129 122 121 120 140 150 142 139 132 122
158 155 152 156 161 166 170 173 173 173 175 176 173 172 174 174 172 170 169 168 170 170 167 165 163 162 159 156 155 158 157 156 159 158 155 159 161 153 144 139 136 138 138 133 124 119 117 110 101 97 93 80 69 57 51 59 63 77 102 103 126 152 158 170 180 182 177 167 165 171 171 154 144 147 143 123 123 120 115 137 151 146 138 129 124
157 155 156 160 164 168 174 177 176 177 178 179 178 175 176 178 176 175 175 174 175 176 171 167 167 166 161 159 160 164 167 172 171 164 162 168 173 163 152 152 148 147 149 143 128 117 112 103 94 84 80 73 67 60 50 63 75 79 89 92 118 152 162 172 181 184 178 168 168 173 176 155 142 154 152 120 127 116 96 127 145 142 133 129 131
158 156 158 162 166 171 177 179 178 180 181 183 182 178 178 181 181 180 180 181 182 181 177 173 173 171 166 164 167 174 181 187 182 175 175 179 183 176 169 170 167 163 156 146 138 121 101 92 89 75 73 71 70 69 51 64 90 96 104 108 139 162 165 175 182 183 177 171 169 174 179 159 148 161 155 125 134 126 88 111 133 131 128 128 128
161 161 162 163 167 172 177 180 181 184 185 186 185 180 181 185 187 186 186 187 187 187 185 181 180 178 173 171 178 186 191 195 192 188 185 188 192 190 194 193 183 178 172 160 158 142 113 94 87 77 82 83 82 93 77 86 111 117 126 145 172 180 176 180 183 182 178 174 170 172 178 168 155 160 159 140 139 137 113 110 115 112 119 121 114
162 163 165 164 166 172 177 183 187 188 187 187 186 184 187 191 192 192 193 193 191 193 192 189 187 184 180 180 187 197 201 199 198 193 188 192 198 200 205 205 200 201 201 183 177 171 147 114 90 92 100 97 97 109 105 115 134 135 132 147 168 177 181 184 185 184 185 181 176 172 172 171 164 163 168 163 150 138 124 132 128 104 112 109 98
165 165 164 163 164 171 178 187 191 189 186 185 188 190 194 197 197 198 198 196 196 199 199 196 194 191 190 190 196 207 207 203 200 195 192 197 205 209 206 201 205 207 189 163 166 170 152 136 118 113 111 104 108 115 108 117 140 148 140 144 160 171 182 187 189 192 194 188 180 174 166 166 173 173 172 168 162 145 118 144 163 144 126 117 105
168 165 159 158 164 176 185 190 189 185 185 188 193 196 200 200 200 202 200 198 201 204 203 202 203 201 198 197 207 219 210 202 200 197 196 200 208 210 198 190 192 185 159 141 143 145 138 142 134 119 113 111 115 117 112 124 143 154 150 146 153 168 182 189 195 198 195 187 180 174 166 165 175 179 173 166 170 172 140 143 171 179 174 162 125
167 160 156 160 172 186 190 188 185 185 188 193 198 198 199 198 198 200 199 201 204 204 207 211 212 209 204 205 215 222 214 205 203 203 200 199 204 201 189 181 173 159 141 130 134 142 142 145 141 131 119 115 117 114 116 132 144 152 153 151 157 172 181 185 192 195 190 183 177 176 174 175 177 175 172 169 172 183 180 159 154 171 197 239 196
162 156 159 169 181 190 189 187 188 191 191 195 199 198 197 195 195 199 198 200 202 204 212 218 219 212 210 211 211 214 216 214 208 201 196 194 194 190 181 171 154 138 131 131 143 149 147 146 143 138 125 119 120 119 126 143 149 150 153 159 167 179 183 183 186 189 189 181 177 180 180 183 186 178 175 180 183 191 201 179 115 129 179 265 255
163 161 164 174 185 190 188 188 192 195 193 195 198 197 197 195 196 199 196 197 199 204 211 214 215 209 208 208 200 203 211 216 211 196 191 189 185 185 178 163 147 136 135 142 153 150 149 150 139 133 129 128 129 129 139 155 155 147 150 167 176 182 184 185 184 186 189 180 176 183 184 187 193 192 190 195 199 194 196 185 120 124 152 352 22
168 166 168 176 185 189 190 190 193 196 193 193 196 197 198 197 198 199 198 200 200 202 206 209 210 205 203 195 188 193 198 204 204 191 188 183 179 182 174 158 146 140 144 153 154 146 150 153 137 130 134 137 139 138 147 159 152 138 137 157 169 172 175 176 177 183 186 179 179 185 187 192 195 200 206 208 206 182 178 184 159 156 164 123 76
171 170 172 179 185 190 195 194 194 194 192 192 195 196 198 197 198 200 200 200 197 198 202 203 199 194 190 178 176 182 183 183 182 183 181 174 173 178 170 157 147 142 153 157 152 145 142 148 145 143 143 141 145 147 151 154 146 133 128 134 145 150 153 154 157 167 175 177 184 186 188 196 198 202 211 211 206 186 180 184 178 180 180 181 205
175 173 175 179 185 193 197 194 193 193 191 192 194 194 197 197 198 200 196 191 189 189 193 191 181 176 167 158 163 168 167 166 169 175 174 168 170 174 171 161 150 146 158 158 155 151 139 143 154 156 153 143 148 154 152 147 138 128 120 115 116 117 121 129 137 148 161 171 188 190 191 197 200 204 208 207 205 197 195 196 191 193 197 205 218
180 176 176 180 186 192 194 189 190 192 190 191 192 191 193 195 197 198 191 184 185 185 184 181 169 160 147 141 148 153 155 155 159 163 162 164 166 169 171 165 156 154 163 165 161 159 150 149 153 157 156 145 148 157 155 147 131 114 105 104 106 104 105 114 120 133 152 166 192 197 195 194 198 201 199 202 205 203 206 208 203 197 204 215 216
181 178 180 183 187 190 190 187 188 191 189 192 193 190 190 191 193 194 190 184 183 182 173 164 153 142 133 131 136 141 147 148 149 151 150 162 166 165 167 162 159 157 166 171 166 164 158 156 154 152 156 148 147 155 155 147 128 108 99 94 90 91 93 101 107 115 136 145 195 206 201 197 199 200 195 194 199 204 208 208 206 202 207 207 210
183 182 182 183 185 189 190 188 187 189 191 194 195 192 191 191 189 189 188 184 179 172 160 151 142 134 128 125 130 138 145 141 138 145 150 162 168 169 168 164 164 165 168 169 168 168 162 164 163 155 158 153 150 155 153 145 130 124 117 96 83 83 82 84 89 90 94 98 181 187 177 197 202 202 201 199 197 197 202 206 210 213 221 214 209
184 183 181 179 180 186 192 192 190 191 190 192 193 192 192 192 190 187 184 179 173 167 158 150 141 134 129 123 126 132 135 130 128 140 151 157 162 166 166 166 171 173 171 167 168 173 170 173 173 163 162 157 156 160 158 158 152 137 122 105 88 81 75 72 76 78 81 83 105 128 108 131 157 174 197 202 200 190 188 199 213 223 238 238 216
183 182 179 176 176 183 191 194 195 193 187 186 187 188 188 188 188 186 184 180 173 170 167 159 149 138 133 127 124 123 123 124 124 130 138 143 148 152 156 161 166 169 170 166 163 165 167 169 173 173 168 159 160 169 176 193 171 147 114 85 86 77 78 75 74 73 82 92 71 87 103 105 113 131 157 177 192 175 169 188 218 240 247 242 226
186 183 180 178 178 183 188 191 195 193 185 183 183 183 182 182 182 180 182 181 175 175 175 168 159 148 139 135 131 129 127 125 124 124 123 127 136 138 143 152 156 157 159 160 156 154 160 164 166 176 175 167 166 173 185 191 176 163 135 125 101 60 175 122 93 72 82 95 73 73 96 109 125 142 133 126 111 90 109 171 211 253 264 244 243
195 187 183 182 182 184 185 189 195 194 187 183 183 183 182 182 181 177 175 172 168 175 178 169 163 158 148 143 142 139 135 130 129 130 124 118 123 133 140 147 149 149 147 151 155 152 156 163 164 173 179 178 177 174 176 178 180 192 208 190 236 216 163 138 114 67 87 96 89 86 96 108 117 117 109 102 93 87 77 77 88 82 79 79 72
202 191 186 186 185 184 183 187 193 194 191 187 186 188 187 187 187 183 178 173 167 170 174 166 160 159 152 151 154 152 149 143 140 143 138 123 118 133 142 144 146 148 147 152 159 153 151 155 159 171 179 183 186 183 175 173 181 198 214 232 278 179 159 148 144 147 105 96 98 99 96 94 98 94 87 86 91 88 76 74 77 82 87 87 83
205 193 189 189 187 184 182 185 190 192 191 190 190 190 191 192 189 183 176 173 168 164 164 162 158 155 148 146 149 154 161 158 149 149 146 135 128 136 141 140 140 142 143 147 152 153 157 160 161 171 178 180 187 189 183 182 188 183 177 213 202 158 154 156 154 140 117 97 103 99 96 90 85 88 93 91 86 83 83 83 80 80 85 88 90
208 199 191 188 185 183 183 185 187 189 189 190 191 191 194 196 189 180 172 168 167 162 161 162 158 152 145 142 143 151 160 155 147 146 145 143 139 139 142 140 133 132 140 146 147 148 156 163 164 169 175 176 181 191 191 193 198 185 160 138 141 143 130 133 145 135 117 122 123 105 105 102 94 95 100 97 89 89 92 93 90 92 95 98 102
210 205 193 185 182 181 183 185 186 187 187 188 191 192 196 196 188 180 173 167 165 161 162 163 160 154 147 144 143 147 152 147 138 137 140 148 150 147 147 143 132 133 152 161 156 150 152 157 161 165 172 171 169 180 192 198 203 194 169 146 145 144 127 124 139 135 121 105 109 114 113 113 104 95 93 94 97 98 101 104 106 107 108 108 110
209 205 194 184 179 179 182 183 185 187 187 187 191 194 194 192 187 182 177 171 166 164 165 165 162 159 154 151 147 144 148 147 141 136 136 146 158 158 154 150 147 154 167 173 168 160 157 156 154 155 161 163 159 163 175 186 193 193 185 171 165 161 155 164 161 150 140 125 120 117 114 115 105 96 98 99 102 104 103 106 110 110 111 112 111